ONEWEB-0205 (48226 NORAD) Tracking and Keplerian Element Data

This shows tracking and keplerian element data for the satellite.

Feedback or suggestion? Click here.




ElementValue
Catalog48226
NameONEWEB-0205
Epoch Orbit194
Epoch Day173.83334491
Epoch Year2021
RAAN294.0936
Inclination87.5501
Eccentricity0.0013638
Argument of Perigee70.864
Mean Anonmoly206.2606
Mean Motion14.3876852
Decay Rate-0.00943104
L11 48226U 21031S 21173.83334491 -.00943104 00000-0 -32692+0 0 9992
L22 48226 87.5501 294.0936 0013638 70.8640 206.2606 14.38768520 1949

Live tracking and technical data element details for ONEWEB-0205 (NORAD 48226). ONEWEB-0205 can be tracked NOW for your location showing map with azimuth and elevation plus other details from your city location.

Track the satellite on the map from your city or location and see movement details for azimuth, elevation, latitude, longitude, range, height, and movement on the map or in text.







IsCatalogInMostPopularTable: catalog: 48226, numindb: 26
Update: records affected: 1



GetName: 48226 ONEWEB-0205

Hit Count: updated at: Thu, 24 Jun 2021 04:09:28 GMT